Location: Las Vegas
(36.1750°N, 115.1360°W)
Time: 02:29:59
(UTC-07:00)

Amateur Radio Satellites - All Passes

Search period start: 29 April 2017 01:59
Search period end: 30 April 2017 01:59
Location: Las Vegas, 36.1750°N, 115.1360°W

Satellite Date Start Highest point End Downlink Frequencies (MHz)
Time Altitude Azimuth
PCSat 29 Apr 02:05:41 02:11:00 60° 299° (WNW) 02:16:24 145.827
MOZHAYETS 4 29 Apr 02:17:47 02:20:31 16° 66° (ENE) 02:23:16
UKube-1 29 Apr 02:32:29 02:33:25 11° 268° (W) 02:34:21 .
BUGSAT 1 29 Apr 02:32:43 02:34:47 14° 293° (WNW) 02:36:52 437.445
BEESAT 29 Apr 02:45:40 02:50:23 74° 75° (ENE) 02:55:08 436.000
AO-7 29 Apr 02:54:19 03:00:00 20° 94° (E) 03:05:38 .
ITAMSAT 1 29 Apr 03:06:52 03:10:46 21° 95° (E) 03:14:39 435.822/435.867
Oscar 19 29 Apr 03:14:18 03:18:30 25° 293° (WNW) 03:22:41 437.125/150
CUBESAT XI-V 29 Apr 03:17:15 03:18:46 11° 64° (ENE) 03:20:18 437.345
YUBILEINY 29 Apr 03:21:46 03:29:28 37° 86° (E) 03:37:10 435.215
NO-84 29 Apr 03:25:28 03:26:52 13° 236° (SW) 03:28:15 435.350 FM
ITUPSAT 1 29 Apr 03:28:31 03:32:57 39° 261° (W) 03:37:24 437.325
Gurwin Techsat 1B 29 Apr 03:37:17 03:41:42 27° 292° (WNW) 03:46:06 435.225
KKS-1 29 Apr 03:46:04 03:49:42 25° 69° (ENE) 03:53:20 437.445
MOZHAYETS 4 29 Apr 03:52:57 03:57:16 43° 261° (W) 04:01:38
STARS 29 Apr 04:10:36 04:13:45 20° 68° (ENE) 04:16:55 437.465
SO-50 29 Apr 04:22:31 04:24:19 12° 108° (ESE) 04:26:06 436.795
RS-15 29 Apr 04:40:52 04:46:11 14° 96° (E) 04:51:32 29.354- 29.394
AO-7 29 Apr 04:45:06 04:53:24 77° 290° (WNW) 05:01:43 .
ITAMSAT 1 29 Apr 04:45:31 04:50:19 40° 290° (WNW) 04:55:07 435.822/435.867
CUBESAT XI-V 29 Apr 04:50:55 04:55:31 66° 259° (W) 05:00:11 437.345
YUBILEINY 29 Apr 05:17:55 05:26:01 43° 284° (WNW) 05:34:12 435.215
KKS-1 29 Apr 05:22:22 05:26:07 26° 263° (W) 05:29:53 437.445
STARS 29 Apr 05:45:52 05:49:50 33° 262° (W) 05:53:50 437.465
M-CUBED/EXP-1 PRIME 29 Apr 05:54:15 05:56:08 12° 59° (ENE) 05:58:02 437.505
SO-50 29 Apr 05:59:39 06:04:14 62° 302° (WNW) 06:08:47 436.795
CUTE-I 29 Apr 06:13:37 06:18:03 27° 96° (E) 06:22:29 437.470
ISS 29 Apr 06:15:54 06:18:26 21° 130° (SE) 06:20:59 437.550
XW-2D 29 Apr 06:22:25 06:25:58 36° 98° (E) 06:29:30 145.860 - 145.880
XW-2B 29 Apr 06:29:21 06:33:00 42° 99° (E) 06:36:39 145.730 - 145.750
KAITUO 1B 29 Apr 06:32:08 06:35:39 36° 98° (E) 06:39:10 145.475/437.950
STRAND 1 29 Apr 06:34:32 06:38:56 31° 69° (ENE) 06:43:22 437.568
DOVE 4 29 Apr 06:37:06 06:41:37 90° 285° (WNW) 06:45:52 437.250
AO-7 29 Apr 06:40:25 06:44:49 16° 308° (NW) 06:49:14 .
XW-2C 29 Apr 06:41:17 06:45:05 64° 101° (E) 06:48:53 145.795 - 145.815
LilacSat-2 29 Apr 06:43:33 06:47:24 73° 102° (ESE) 06:51:15 437.200
RS-15 29 Apr 06:44:29 06:56:21 73° 114° (ESE) 07:08:38 29.354- 29.394
HO-68 29 Apr 06:44:57 06:48:49 15° 91° (E) 06:52:40 435.675
XW-2F 29 Apr 07:04:38 07:08:24 63° 284° (WNW) 07:12:11 145.980 - 146.000
NUDT-PHONESAT 29 Apr 07:07:19 07:11:01 73° 283° (WNW) 07:14:45 437.300
Tancredo 1 29 Apr 07:07:56 07:10:59 64° 320° (NW) 07:14:03 437.200
M-CUBED/EXP-1 PRIME 29 Apr 07:25:19 07:29:55 71° 254° (WSW) 07:34:36 437.505
ISS 29 Apr 07:51:49 07:54:47 32° 325° (NW) 07:57:46 437.550
CUTE-I 29 Apr 07:53:22 07:58:04 33° 291° (WNW) 08:02:45 437.470
XW-2D 29 Apr 07:57:55 07:59:48 13° 292° (WNW) 08:01:42 145.860 - 145.880
XW-2A 29 Apr 08:04:45 08:08:07 84° 102° (ESE) 08:11:30 145.665 - 145.685
AAUSAT CUBESAT 2 29 Apr 08:05:28 08:08:37 20° 95° (E) 08:11:44 437.432
XW-2B 29 Apr 08:05:29 08:06:46 11° 293° (WNW) 08:08:03 145.730 - 145.750
KAITUO 1B 29 Apr 08:07:32 08:09:19 13° 292° (WNW) 08:11:06 145.475/437.950
UWE-3 29 Apr 08:08:03 08:11:10 20° 95° (E) 08:14:18 435.000/436.395/437.385
STRAND 1 29 Apr 08:13:46 08:18:03 27° 264° (W) 08:22:22 437.568
CUBEBUG 2 29 Apr 08:26:37 08:30:45 57° 100° (E) 08:34:58 437.445
CUTE 1.7 + AOD 2 29 Apr 08:26:42 08:30:57 59° 284° (WNW) 08:35:08 437.475
HO-68 29 Apr 08:29:59 08:37:13 83° 287° (WNW) 08:44:25 435.675
SEEDS 29 Apr 08:41:01 08:45:15 64° 284° (WNW) 08:49:27 437.485
O/OREOS (USA 219) 29 Apr 08:42:55 08:45:58 18° 100° (E) 08:49:01 437.305
Tancredo 1 29 Apr 08:46:47 08:47:24 10° 337° (NNW) 08:48:01 437.200
UNISAT 6 29 Apr 08:49:54 08:51:57 13° 66° (ENE) 08:53:59 437.425
FO-29 29 Apr 08:54:23 08:58:15 18° 66° (ENE) 09:01:53 435.910
ZACube-1 29 Apr 08:56:02 09:00:03 40° 98° (E) 09:04:09 437.345
PRISM 29 Apr 08:56:43 09:00:07 25° 70° (ENE) 09:03:34 437.425
RS-15 29 Apr 08:59:06 09:09:55 36° 318° (NW) 09:21:02 29.354- 29.394
AO-73 29 Apr 09:01:05 09:05:08 41° 99° (E) 09:09:15 145.935
Oscar 11 29 Apr 09:13:01 09:17:13 47° 99° (E) 09:21:25 .
AAUSAT CUBESAT 2 29 Apr 09:40:28 09:44:01 27° 289° (WNW) 09:47:34 437.432
UWE-3 29 Apr 09:43:56 09:47:35 29° 288° (WNW) 09:51:19 435.000/436.395/437.385
OBJECT BX 29 Apr 09:53:51 09:56:55 25° 97° (E) 09:59:59 145.990 - 145.960
DELFI C3 29 Apr 09:57:00 10:00:47 40° 98° (E) 10:04:32 145.870
TIGRISAT 29 Apr 10:01:40 10:06:02 83° 75° (ENE) 10:10:20 435.000
CUBEBUG 2 29 Apr 10:05:58 10:06:53 11° 294° (WNW) 10:07:49 437.445
HO-68 29 Apr 10:20:18 10:23:51 14° 304° (NW) 10:27:24 435.675
O/OREOS (USA 219) 29 Apr 10:20:46 10:25:01 37° 295° (WNW) 10:29:19 437.305
UNISAT 6 29 Apr 10:24:00 10:28:14 48° 260° (W) 10:32:25 437.425
PRISM 29 Apr 10:32:05 10:35:19 22° 264° (W) 10:38:35 437.425
ZACube-1 29 Apr 10:33:31 10:36:00 15° 292° (WNW) 10:38:29 437.345
FO-29 29 Apr 10:36:43 10:42:58 60° 258° (WSW) 10:48:34 435.910
AO-73 29 Apr 10:38:37 10:41:01 15° 292° (WNW) 10:43:27 145.935
LO-87 29 Apr 10:48:31 10:50:27 14° 94° (E) 10:52:22 145.935 - 145.965
Oscar 11 29 Apr 10:50:43 10:52:55 14° 294° (WNW) 10:55:06 .
DUCHIFAT 1 29 Apr 10:54:34 10:57:23 18° 68° (ENE) 11:00:12 145.980
EO-79 29 Apr 10:55:43 10:59:01 23° 70° (ENE) 11:02:19 145.935-145.965
PCSat 29 Apr 10:56:07 11:01:29 60° 61° (ENE) 11:06:50 145.827
ESTCUBE 1 29 Apr 11:05:45 11:08:20 15° 93° (E) 11:10:55 437.505/2401.250
RS-15 29 Apr 11:21:05 11:27:54 16° 351° (N) 11:34:43 29.354- 29.394
OBJECT BX 29 Apr 11:27:59 11:30:23 17° 291° (WNW) 11:32:48 145.990 - 145.960
AIST 2D 29 Apr 11:28:51 11:32:17 64° 260° (W) 11:35:44 435.315
DELFI C3 29 Apr 11:33:14 11:35:10 13° 293° (WNW) 11:37:06 145.870
POLYITAN 1 29 Apr 11:34:54 11:39:05 68° 76° (ENE) 11:43:15 437.675
AO-85 29 Apr 11:39:31 11:43:53 74° 117° (ESE) 11:47:58 145.980
QB50P2 29 Apr 11:41:39 11:45:52 89° 101° (ESE) 11:50:06 145.880/145.840
BUGSAT 1 29 Apr 11:43:38 11:46:38 20° 69° (ENE) 11:49:37 437.445
BEESAT 3 29 Apr 11:58:20 12:01:04 18° 110° (ESE) 12:03:49 437.485
NANOSAT C BR1 29 Apr 12:00:28 12:04:38 65° 259° (W) 12:08:48 145.865
LO-87 29 Apr 12:20:53 12:23:55 27° 288° (WNW) 12:26:55 145.935 - 145.965
DUCHIFAT 1 29 Apr 12:29:01 12:32:47 32° 262° (W) 12:36:33 145.980
EO-79 29 Apr 12:31:08 12:34:38 25° 264° (W) 12:38:08 145.935-145.965
50 SAT 29 Apr 12:34:43 12:37:09 18° 95° (E) 12:39:34 437.505
VELOX 1 29 Apr 12:40:22 12:44:36 45° 99° (E) 12:48:48 145.980
ESTCUBE 1 29 Apr 12:41:00 12:45:19 44° 287° (WNW) 12:49:37 437.505/2401.250
PCSat 29 Apr 12:41:12 12:44:18 16° 256° (WSW) 12:47:25 145.827
UKube-1 29 Apr 12:44:58 12:46:10 11° 92° (E) 12:47:22 .
ISS 29 Apr 12:46:09 12:47:51 13° 25° (NNE) 12:49:33 437.550
Oscar 19 29 Apr 12:48:49 12:53:33 39° 71° (ENE) 12:58:20 437.125/150
Gurwin Techsat 1B 29 Apr 13:15:32 13:20:28 41° 71° (ENE) 13:25:26 435.225
BUGSAT 1 29 Apr 13:18:14 13:21:47 28° 263° (W) 13:25:20 437.445
SPROUT 29 Apr 13:18:57 13:23:09 63° 284° (WNW) 13:27:20 437.525
DX 1 29 Apr 13:21:50 13:26:02 47° 100° (E) 13:30:13 434.975-435.025
AO-85 29 Apr 13:23:34 13:24:39 11° 314° (NW) 13:25:43 145.980
BEESAT 3 29 Apr 13:34:52 13:38:24 31° 306° (NW) 13:41:59 437.485
Tancredo 1 29 Apr 13:35:37 13:38:31 37° 36° (NE) 13:41:26 437.200
YUBILEINY 29 Apr 13:36:34 13:41:10 15° 64° (ENE) 13:45:45 435.215
RS-15 29 Apr 13:38:12 13:47:19 23° 29° (NNE) 13:56:10 29.354- 29.394
BEESAT 2 29 Apr 13:40:29 13:44:24 76° 300° (WNW) 13:48:25 435.950
AO-7 29 Apr 13:50:54 13:57:06 24° 57° (ENE) 14:03:17 .
50 SAT 29 Apr 14:07:21 14:09:59 20° 290° (WNW) 14:12:36 437.505
VELOX 1 29 Apr 14:18:11 14:20:38 15° 294° (WNW) 14:23:05 145.980
UKube-1 29 Apr 14:18:16 14:22:28 53° 286° (WNW) 14:26:39 .
ISS 29 Apr 14:21:29 14:24:45 88° 221° (SW) 14:27:59 437.550
ITAMSAT 1 29 Apr 14:22:15 14:26:28 26° 68° (ENE) 14:30:42 435.822/435.867
Oscar 19 29 Apr 14:29:02 14:32:57 22° 265° (W) 14:36:55 437.125/150
SO-50 29 Apr 14:33:23 14:37:49 53° 57° (ENE) 14:42:13 436.795
BEESAT 29 Apr 14:49:03 14:52:48 23° 96° (E) 14:56:31 436.000
Gurwin Techsat 1B 29 Apr 14:56:31 15:00:31 22° 266° (W) 15:04:32 435.225
DX 1 29 Apr 14:59:35 15:01:47 14° 295° (WNW) 15:03:57 434.975-435.025
Tancredo 1 29 Apr 15:12:16 15:14:11 15° 231° (SW) 15:16:05 437.200
YUBILEINY 29 Apr 15:30:27 15:39:17 84° 84° (E) 15:48:06 435.215
ITUPSAT 1 29 Apr 15:31:07 15:35:52 64° 101° (ESE) 15:40:37 437.325
AO-7 29 Apr 15:40:48 15:49:04 72° 255° (WSW) 15:57:22 .
MOZHAYETS 4 29 Apr 15:50:12 15:54:42 51° 99° (E) 15:59:12
RS-15 29 Apr 15:50:32 16:02:46 68° 56° (ENE) 16:14:18 29.354- 29.394
ITAMSAT 1 29 Apr 16:01:06 16:05:45 33° 262° (W) 16:10:25 435.822/435.867
JUGNU 29 Apr 16:13:52 16:16:43 14° 172° (S) 16:19:34 437.505
SO-50 29 Apr 16:15:36 16:17:47 13° 252° (WSW) 16:19:56 436.795
BEESAT 29 Apr 16:26:20 16:30:33 32° 290° (WNW) 16:34:46 436.000
CUBESAT XI-V 29 Apr 16:50:11 16:54:34 37° 98° (E) 16:58:54 437.345
NO-84 29 Apr 17:02:42 17:05:07 16° 125° (SE) 17:07:25 435.350 FM
XW-2D 29 Apr 17:02:53 17:04:28 12° 67° (ENE) 17:06:02 145.860 - 145.880
XW-2B 29 Apr 17:09:22 17:11:27 14° 68° (ENE) 17:13:31 145.730 - 145.750
ITUPSAT 1 29 Apr 17:11:07 17:13:06 13° 297° (WNW) 17:15:05 437.325
KAITUO 1B 29 Apr 17:11:33 17:12:56 12° 67° (ENE) 17:14:18 145.475/437.950
KKS-1 29 Apr 17:14:57 17:19:23 71° 102° (ESE) 17:23:47 437.445
XW-2C 29 Apr 17:20:39 17:23:26 20° 70° (ENE) 17:26:14 145.795 - 145.815
LilacSat-2 29 Apr 17:23:18 17:26:17 23° 71° (ENE) 17:29:18 437.200
MOZHAYETS 4 29 Apr 17:28:56 17:31:24 14° 294° (WNW) 17:33:51
YUBILEINY 29 Apr 17:29:48 17:34:52 17° 281° (W) 17:39:57 435.215
CUTE-I 29 Apr 17:32:42 17:37:29 35° 70° (ENE) 17:42:16 437.470
STARS 29 Apr 17:37:15 17:41:30 51° 100° (E) 17:45:44 437.465
DOVE 4 29 Apr 17:38:21 17:43:36 68° 75° (ENE) 17:48:45 437.250
AO-7 29 Apr 17:41:38 17:43:00 10° 271° (W) 17:44:22 .
XW-2F 29 Apr 17:42:49 17:46:15 37° 74° (ENE) 17:49:42 145.980 - 146.000
NUDT-PHONESAT 29 Apr 17:44:07 17:47:21 30° 73° (ENE) 17:50:35 437.300
SRMSAT 29 Apr 17:45:07 17:45:43 10° 166° (SSE) 17:46:19 437.500
JUGNU 29 Apr 18:01:34 18:04:56 16° 182° (S) 18:08:18 437.505
RS-15 29 Apr 18:04:15 18:14:13 32° 257° (WSW) 18:23:51 29.354- 29.394
CUBESAT XI-V 29 Apr 18:28:16 18:31:37 20° 293° (WNW) 18:34:59 437.345
XW-2A 29 Apr 18:34:27 18:36:39 17° 70° (ENE) 18:38:50 145.665 - 145.685
XW-2D 29 Apr 18:34:48 18:38:16 37° 262° (W) 18:41:47 145.860 - 145.880
NO-84 29 Apr 18:38:42 18:42:27 47° 317° (NW) 18:45:53 435.350 FM
XW-2B 29 Apr 18:42:00 18:45:20 31° 263° (W) 18:48:42 145.730 - 145.750
KAITUO 1B 29 Apr 18:43:07 18:46:33 37° 262° (W) 18:50:01 145.475/437.950
STRAND 1 29 Apr 18:49:22 18:51:24 12° 91° (E) 18:53:26 437.568
O/OREOS (USA 219) 29 Apr 18:54:32 18:58:10 23° 61° (ENE) 19:01:46 437.305
XW-2C 29 Apr 18:54:35 18:57:29 21° 264° (W) 19:00:25 145.795 - 145.815
HO-68 29 Apr 18:55:16 19:02:12 56° 69° (ENE) 19:09:10 435.675
LilacSat-2 29 Apr 18:57:47 19:00:29 19° 265° (W) 19:03:13 437.200
UWE-3 29 Apr 19:04:15 19:05:45 12° 66° (ENE) 19:07:16 435.000/436.395/437.385
CUTE-I 29 Apr 19:13:08 19:17:31 26° 264° (W) 19:21:56 437.470
STARS 29 Apr 19:15:25 19:17:22 13° 295° (WNW) 19:19:18 437.465
CUTE 1.7 + AOD 2 29 Apr 19:16:11 19:20:20 65° 76° (ENE) 19:24:33 437.475
XW-2F 29 Apr 19:19:17 19:20:32 11° 268° (W) 19:21:47 145.980 - 146.000
DOVE 4 29 Apr 19:19:18 19:21:36 13° 269° (W) 19:23:54 437.250
NUDT-PHONESAT 29 Apr 19:19:27 19:21:19 13° 267° (W) 19:23:11 437.300
CUBEBUG 2 29 Apr 19:22:10 19:26:03 33° 73° (ENE) 19:29:52 437.445
SEEDS 29 Apr 19:29:32 19:33:38 59° 76° (ENE) 19:37:48 437.485
SRMSAT 29 Apr 19:30:39 19:34:04 16° 176° (S) 19:37:30 437.500
ZACube-1 29 Apr 19:49:50 19:53:04 22° 70° (ENE) 19:56:16 437.345
JUGNU 29 Apr 19:51:33 19:53:08 11° 192° (SSW) 19:54:43 437.505
AO-73 29 Apr 19:54:34 19:57:48 22° 70° (ENE) 20:01:02 145.935
Oscar 11 29 Apr 20:05:26 20:08:58 26° 70° (ENE) 20:12:32 .
XW-2A 29 Apr 20:06:41 20:09:14 20° 264° (W) 20:11:47 145.665 - 145.685
AO-85 29 Apr 20:13:16 20:16:41 26° 54° (NE) 20:20:13 145.980
STRAND 1 29 Apr 20:25:54 20:30:58 65° 286° (WNW) 20:36:01 437.568
AAUSAT CUBESAT 2 29 Apr 20:26:54 20:30:58 60° 259° (W) 20:35:06 437.432
O/OREOS (USA 219) 29 Apr 20:33:35 20:37:33 30° 257° (WSW) 20:41:28 437.305
UWE-3 29 Apr 20:37:38 20:41:46 51° 260° (W) 20:45:51 435.000/436.395/437.385
DELFI C3 29 Apr 20:40:42 20:43:15 17° 68° (ENE) 20:45:49 145.870
M-CUBED/EXP-1 PRIME 29 Apr 20:41:40 20:45:38 57° 290° (WNW) 20:49:15 437.505
HO-68 29 Apr 20:44:40 20:50:13 24° 265° (W) 20:55:49 435.675
CUBEBUG 2 29 Apr 20:59:49 21:02:43 17° 266° (W) 21:05:34 437.445
SRMSAT 29 Apr 21:19:12 21:22:28 15° 186° (S) 21:25:44 437.500
ZACube-1 29 Apr 21:25:45 21:29:12 25° 264° (W) 21:32:39 437.345
AO-73 29 Apr 21:30:30 21:33:54 24° 264° (W) 21:37:18 145.935
Oscar 11 29 Apr 21:41:37 21:45:01 23° 265° (W) 21:48:28 .
FO-29 29 Apr 21:49:18 21:52:42 17° 95° (E) 21:56:14 435.910
BEESAT 3 29 Apr 21:53:30 21:57:28 59° 58° (ENE) 22:01:24 437.485
AO-85 29 Apr 21:53:42 21:56:56 23° 247° (WSW) 22:00:18 145.980
TIGRISAT 29 Apr 21:56:19 21:59:31 20° 95° (E) 22:02:44 435.000
BEESAT 2 29 Apr 22:00:52 22:04:21 26° 53° (NE) 22:07:47 435.950
OBJECT BX 29 Apr 22:01:45 22:05:19 57° 260° (W) 22:08:55 145.990 - 145.960
ESTCUBE 1 29 Apr 22:04:40 22:05:33 10° 63° (ENE) 22:06:25 437.505/2401.250
DELFI C3 29 Apr 22:14:12 22:17:46 31° 263° (W) 22:21:21 145.870
PRISM 29 Apr 22:14:54 22:19:00 58° 101° (E) 22:23:02 437.425
UNISAT 6 29 Apr 22:17:57 22:22:01 39° 99° (E) 22:26:07 437.425
LO-87 29 Apr 22:53:25 22:57:01 71° 77° (ENE) 23:00:38 145.935 - 145.965
AIST 2D 29 Apr 22:58:42 22:59:33 11° 92° (E) 23:00:25 435.315
POLYITAN 1 29 Apr 23:24:00 23:26:00 13° 93° (E) 23:27:59 437.675
QB50P2 29 Apr 23:30:07 23:32:55 17° 94° (E) 23:35:43 145.880/145.840
TIGRISAT 29 Apr 23:32:27 23:36:11 30° 289° (WNW) 23:39:59 435.000
FO-29 29 Apr 23:32:51 23:37:59 52° 287° (WNW) 23:43:33 435.910
VELOX 1 29 Apr 23:35:01 23:38:51 29° 70° (ENE) 23:42:42 145.980
ESTCUBE 1 29 Apr 23:37:14 23:41:43 68° 259° (W) 23:46:14 437.505/2401.250
BEESAT 2 29 Apr 23:38:45 23:41:58 23° 249° (WSW) 23:45:09 435.950
NANOSAT C BR1 29 Apr 23:47:49 23:51:11 23° 96° (E) 23:54:32 145.865
PRISM 29 Apr 23:53:13 23:53:42 10° 296° (WNW) 23:54:12 437.425
UNISAT 6 29 Apr 23:55:46 23:58:23 16° 293° (WNW) 00:01:02 437.425
PCSat 29 Apr 23:56:56 23:57:32 10° 102° (ESE) 23:58:10 145.827
SPROUT 30 Apr 00:09:07 00:13:21 66° 76° (ENE) 00:17:35 437.525
DX 1 30 Apr 00:14:46 00:18:34 29° 70° (ENE) 00:22:22 434.975-435.025
DUCHIFAT 1 30 Apr 00:15:04 00:19:03 44° 99° (E) 00:23:02 145.980
EO-79 30 Apr 00:17:25 00:21:34 59° 101° (E) 00:25:42 145.935-145.965
AIST 2D 30 Apr 00:29:38 00:32:53 35° 286° (WNW) 00:36:07 435.315
50 SAT 30 Apr 00:36:16 00:39:44 88° 79° (E) 00:43:15 437.505
POLYITAN 1 30 Apr 00:57:58 01:01:57 42° 287° (WNW) 01:05:55 437.675
BUGSAT 1 30 Apr 01:01:51 01:05:43 45° 100° (E) 01:09:34 437.445
Oscar 19 30 Apr 01:04:04 01:07:21 17° 93° (E) 01:10:37 437.125/150
QB50P2 30 Apr 01:04:59 01:08:45 32° 288° (WNW) 01:12:31 145.880/145.840
UKube-1 30 Apr 01:09:29 01:13:48 88° 73° (ENE) 01:18:09 .
VELOX 1 30 Apr 01:11:47 01:15:15 22° 265° (W) 01:18:44 145.980
NO-84 30 Apr 01:15:27 01:17:51 23° 39° (NE) 01:20:12 435.350 FM
NANOSAT C BR1 30 Apr 01:23:24 01:26:48 24° 290° (WNW) 01:30:10 145.865
PCSat 30 Apr 01:34:43 01:40:07 85° 295° (WNW) 01:45:35 145.827
Gurwin Techsat 1B 30 Apr 01:35:08 01:38:58 20° 94° (E) 01:42:47 435.225
DX 1 30 Apr 01:51:24 01:54:43 21° 265° (W) 01:58:02 434.975-435.025
DUCHIFAT 1 30 Apr 01:52:16 01:54:18 13° 294° (WNW) 01:56:21 145.980
EO-79 30 Apr 01:56:11 01:56:47 10° 295° (WNW) 01:57:22 145.935-145.965
